Regional Weather Roundup
Issued by NWS

Home | Current Version | Previous Version | Text Only | Print | Product List | Glossary On
Versions: 1 2 3 4 5 6 7 8 9 10 11 12 13 14 15 16 17 18 19 20 21 22 23 24 25 26 27 28 29 30 31 32 33 34 35 36 37 38 39 40 41 42 43 44 45 46 47 48 49 50
415
ASUS46 KSEW 061810
RWRWA

WASHINGTON REGIONAL WEATHER ROUNDUP
NATIONAL WEATHER SERVICE SEATTLE WA
1100 AM PDT FRI MAY 06 2016

NOTE:"FAIR" INDICATES FEW OR NO CLOUDS BELOW 12,000 FEET WITH NO
SIGNIFICANT WEATHER AND/OR OBSTRUCTIONS TO VISIBILITY.

WAZ505-507>509-061900-
SEATTLE, TACOMA, EVERETT, AND VICINITY

CITY           SKY/WX    TMP DP  RH WIND       PRES   REMARKS
EVERETT        SUNNY     62  46  55 VRB5      30.09F
6HR MIN TEMP:  49; 6HR MAX TEMP:  62;

BOEING FIELD   SUNNY     67  46  47 NE7       30.08
RENTON         SUNNY     64  49  57 NW8       30.07F
6HR MIN TEMP:  50; 6HR MAX TEMP:  65;

SEATAC AIRPORT MOSUNNY   66  44  45 NE10      30.08F
6HR MIN TEMP:  51; 6HR MAX TEMP:  67;

JBLM-MCCHORD   SUNNY     66  45  46 N12G20    30.07F
6HR MIN TEMP:  44; 6HR MAX TEMP:  66; 6HR PCP: TRACE;

PUYALLUP       FAIR      66  54  63 CALM      30.07F
BREMERTON      SUNNY     66  45  45 NE7       30.09F
6HR MIN TEMP:  41; 6HR MAX TEMP:  66;

JBLM-FT LEWIS  SUNNY     66  44  43 NW14      30.06F
6HR MIN TEMP:  45; 6HR MAX TEMP:  66;

TACOMA NARROWS SUNNY     65  42  43 N10       30.08F
6HR MIN TEMP:  49; 6HR MAX TEMP:  65;

$$

WAZ001-503-506-510-514-515-061900-
NORTH INTERIOR

CITY           SKY/WX    TMP DP  RH WIND       PRES   REMARKS
BELLINGHAM     SUNNY     68  48  48 W8        30.08F
6HR MIN TEMP:  42; 6HR MAX TEMP:  68;

FRIDAY HARBOR  SUNNY     65  45  48 N10G18    30.11F
6HR MIN TEMP:  57; 6HR MAX TEMP:  65;

EASTSOUND      SUNNY     57  48  72 N9        30.10F
PORT ANGELES   SUNNY     70  34  26 SE7       30.12F
6HR MIN TEMP:  45; 6HR MAX TEMP:  70; 6HR PCP: TRACE;

EDIZ HOOK      FAIR      64  41  42 S7        30.11F
6HR MIN TEMP:  51; 6HR MAX TEMP:  66;

PORT TOWNSEND  FAIR      64  41  42 NW12G20   30.10F
NAS WHIDBEY    MOSUNNY   64  49  57 NW9       30.14S
6HR MIN TEMP:  47; 6HR MAX TEMP:  64;

ARLINGTON      SUNNY     63  46  55 NW6       30.10F
6HR MIN TEMP:  41; 6HR MAX TEMP:  63;

BURLINGTON     SUNNY     63  52  67 NW9       30.10S
$$

WAZ020-022-039-040-504-511-512-061900-
SOUTHWEST INTERIOR

CITY           SKY/WX    TMP DP  RH WIND       PRES   REMARKS
SHELTON        SUNNY     65  45  48 VRB3      30.05F
6HR MIN TEMP:  38; 6HR MAX TEMP:  66;

OLYMPIA        SUNNY     69  41  36 NE14G22   30.06F
6HR MIN TEMP:  41; 6HR MAX TEMP:  69;

CHEHALIS       FAIR      70  48  46 N16G23    30.05F
KELSO          SUNNY     68  46  45 NW9       30.05F
6HR MIN TEMP:  46; 6HR MAX TEMP:  70;

VANCOUVER      SUNNY     69  50  50 W8        29.99F
6HR MIN TEMP:  49; 6HR MAX TEMP:  69;

SCAPPOOSE, OR  SUNNY     70  48  45 N14       29.99F
6HR MIN TEMP:  53; 6HR MAX TEMP:  70;

PORTLAND, OR   MOSUNNY   68  50  52 VRB7      30.00F
6HR MIN TEMP:  53; 6HR MAX TEMP:  68;

$$

WAZ021-516-517-061900-
WASHINGTON COAST

CITY           SKY/WX    TMP DP  RH WIND       PRES   REMARKS
FORKS          SUNNY     74  32  21 NE13G23   30.07S
6HR MIN TEMP:  40; 6HR MAX TEMP:  74;

HOQUIAM        SUNNY     65  50  58 E6        30.06F
6HR MIN TEMP:  44; 6HR MAX TEMP:  65;

ASTORIA, OR    SUNNY     66  51  58 NW8       30.03F
6HR MIN TEMP:  44; 6HR MAX TEMP:  66;

$$

WAZ019-023-024-040-518-519-061900-
CASCADE MOUNTAINS AND COLUMBIA GORGE

CITY           SKY/WX    TMP DP  RH WIND       PRES   REMARKS
STAMPEDE PASS  SUNNY     61  39  44 VRB3      30.11S
6HR MIN TEMP:  46; 6HR MAX TEMP:  61;

TROUTDALE, OR  SUNNY     67  52  58 CALM      29.99F
6HR MIN TEMP:  50; 6HR MAX TEMP:  67;

THE DALLES, OR SUNNY     73  51  46 N6        29.98F
6HR MIN TEMP:  52; 6HR MAX TEMP:  73;

$$

WAZ026-027-041>044-520-521-061900-
EAST SLOPES

CITY           SKY/WX    TMP DP  RH WIND       PRES   REMARKS
OMAK           SUNNY     70  38  31 N21       30.10F
6HR MIN TEMP:  55; 6HR MAX TEMP:  70;

WENATCHEE      PTSUNNY   66  40  38 W12       30.07F
6HR MIN TEMP:  50; 6HR MAX TEMP:  66;

ELLENSBURG     SUNNY     72  39  30 CALM      30.04S
6HR MIN TEMP:  47; 6HR MAX TEMP:  72;

YAKIMA         SUNNY     78  43  28 NE21      30.01F
6HR MIN TEMP:  49; 6HR MAX TEMP:  78;

$$

WAZ028-034-035-061900-
COLUMBIA BASIN

CITY           SKY/WX    TMP DP  RH WIND       PRES   REMARKS
EPHRATA        PTSUNNY   73  44  35 N17G29    30.03S
6HR MIN TEMP:  57; 6HR MAX TEMP:  73;

MOSES LAKE     SUNNY     76  47  35 NE17      30.02S
6HR MIN TEMP:  50; 6HR MAX TEMP:  77;

PASCO          MOSUNNY   73  53  49 NE9       29.97F
6HR MIN TEMP:  47; 6HR MAX TEMP:  73;

HERMISTON, OR  PTSUNNY   69  49  48 N7        29.98F
6HR MIN TEMP:  57; 6HR MAX TEMP:  69;

$$

WAZ036>038-061900-
NORTHEAST WASHINGTON

CITY           SKY/WX    TMP DP  RH WIND       PRES   REMARKS
SPOKANE GEIGER PTSUNNY   70  45  40 E18       30.04S
6HR MIN TEMP:  53; 6HR MAX TEMP:  70;

SPOKANE FELTS  SUNNY     72  47  40 NE16G28   30.04F
6HR MIN TEMP:  52; 6HR MAX TEMP:  73;

FAIRCHILD AFB  SUNNY     69  48  46 E20G25    30.04S
6HR MIN TEMP:  51; 6HR MAX TEMP:  69;

COEURDALENE,ID MOSUNNY  N/A N/A N/A NE18G28   30.03F
DEER PARK      SUNNY     71  46  40 NE17G28   30.07S
6HR MIN TEMP:  52; 6HR MAX TEMP:  71;

$$

WAZ029>033-061900-
SOUTHEAST WASHINGTON

CITY           SKY/WX    TMP DP  RH WIND       PRES   REMARKS
PULLMAN        PTSUNNY   66  53  63 NE14      30.01F
6HR MIN TEMP:  53; 6HR MAX TEMP:  67;

LEWISTON, ID   CLOUDY    66  57  72 SW5       29.97F
6HR MIN TEMP:  56; 6HR MAX TEMP:  66;

WALLA WALLA    PTSUNNY   62  50  64 CALM      29.98F
6HR MIN TEMP:  53; 6HR MAX TEMP:  63;

PENDLETON, OR  PTSUNNY   62  47  57 VRB7      29.99F
6HR MIN TEMP:  48; 6HR MAX TEMP:  63;

$$




USA.gov is the U.S. government's official web portal to all federal, state and local government web resources and services.